Flag Weather past 2 weeks in St. Croix Falls, Wisconsin, U.S.A.

Now
42 °F

Fog.


Feels Like: 38 °F
Forecast: 33 / 41 °F
Wind: 6 mph from South

Location: L O Simenstad Municipal Airport

Current Time: Nov 23, 2014 at 3:57:21 AM

Latest Report: Nov 23, 2014 at 3:15 AM


Visibility: 0 mi

Pressure: 29.47 "Hg

Humidity: 100%

Dew point: 42 °F

Location of St. Croix FallsLocation

Historic Weather in St. Croix Falls — Graph

°F

St. Croix Falls temperature yesterday

Maximum temperature yesterday: 39 °F (at 11:55 PM)
Minimum temperature yesterday: 32 °F (at 12:15 AM)
Average temperature yesterday: 35 °F

Past Weeks' High & Low Weather Summary

 TemperatureHumidityPressure
High41 °F (Nov 23, 2:15 AM)100% (Nov 10, 5:35 AM)30.41 "Hg (Nov 10, 5:35 AM)
Low-5 °F (Nov 21, 1:35 AM)35% (Nov 9, 3:55 PM)29.48 "Hg (Nov 23, 2:55 AM)
Average21 °F77%30.04 "Hg
* Reported Nov 8 2:15 AM — Nov 23 2:55 AM, St. Croix Falls, Weather by CustomWeather, © 2014

Note: Actual official high and low records may vary slightly from our data, if they occured in-between our weather recording intervals... More about our weather records

Advertising

St. Croix Falls weather history for previous 24 hours

 ConditionsComfort  
Time TempWeatherWind HumidityBarometerVisibility
2:55 AM
Nov 23
40 °FFog.6 mph100%29.48 "Hg0 mi
2:15 AM41 °FFog.6 mph100%29.49 "Hg1 mi
1:55 AM40 °FFog.6 mph100%29.50 "Hg1 mi
1:35 AM40 °FFog.8 mph100%29.50 "Hg1 mi
1:15 AM40 °FFog.7 mph100%29.51 "Hg1 mi
12:55 AM40 °FFog.8 mph100%29.52 "Hg2 mi
12:15 AM40 °FFog.8 mph100%29.54 "Hg3 mi
11:55 PM
Nov 22
39 °FFog.6 mph100%29.55 "Hg4 mi
11:35 PM38 °FFog.9 mph100%29.55 "Hg3 mi
11:15 PM38 °FFog.7 mph100%29.56 "Hg3 mi
10:55 PM37 °FFog.7 mph100%29.57 "Hg2 mi
10:15 PM36 °FFog.10 mph100%29.58 "Hg1 mi
9:55 PM36 °FFog.10 mph100%29.59 "Hg1 mi
9:15 PM36 °FFog.8 mph100%29.61 "Hg2 mi
8:55 PM36 °FFog.7 mph100%29.62 "Hg2 mi
8:35 PM36 °FFog.7 mph100%29.62 "Hg2 mi
8:15 PM36 °FFog.8 mph100%29.62 "Hg3 mi
7:55 PM36 °FFog.8 mph100%29.63 "Hg3 mi
7:15 PM35 °FFog.9 mph100%29.65 "Hg5 mi
6:55 PM35 °FFog.10 mph100%29.66 "Hg5 mi
6:15 PM35 °FFog.10 mph100%29.65 "Hg5 mi
5:55 PM35 °FFog.10 mph100%29.67 "Hg4 mi
5:15 PM35 °FFog.8 mph100%29.67 "Hg4 mi
4:55 PM35 °FFog.7 mph100%29.68 "Hg5 mi
4:35 PM35 °FFog.9 mph100%29.69 "Hg4 mi
4:15 PM35 °FFog.9 mph100%29.69 "Hg4 mi
3:55 PM35 °FFog.12 mph100%29.71 "Hg5 mi
3:35 PM35 °FFog.13 mph100%29.71 "Hg5 mi
3:15 PM35 °FFog.9 mph100%29.70 "Hg5 mi
2:55 PM35 °FFog.9 mph100%29.71 "Hg5 mi
2:35 PM35 °FFog.10 mph100%29.72 "Hg5 mi
2:15 PM35 °FFog.10 mph100%29.72 "Hg5 mi
1:55 PM35 °FFog.7 mph100%29.72 "Hg5 mi
1:35 PM35 °FFog.10 mph100%29.73 "Hg5 mi
1:15 PM35 °FFog.13 mph100%29.73 "Hg4 mi
12:35 PM35 °FFog.9 mph100%29.73 "Hg4 mi
12:15 PM36 °FFog.8 mph98%29.74 "Hg4 mi
11:55 AM36 °FFog.12 mph98%29.74 "Hg4 mi
11:35 AM36 °FFog.6 mph98%29.75 "Hg4 mi
11:15 AM36 °FFog.9 mph98%29.76 "Hg3 mi
10:55 AM36 °FFog.7 mph98%29.77 "Hg3 mi
10:35 AM36 °FFog.8 mph98%29.77 "Hg3 mi
10:15 AM36 °FFog.8 mph99%29.78 "Hg3 mi
9:55 AM36 °FFog.8 mph98%29.78 "Hg3 mi
9:35 AM36 °FFog.9 mph98%29.78 "Hg3 mi
9:15 AM36 °FFog.7 mph99%29.79 "Hg3 mi
8:55 AM36 °FFog.8 mph98%29.79 "Hg3 mi
8:35 AM36 °FFog.6 mph98%29.79 "Hg3 mi
7:55 AM36 °FFog.7 mph98%29.80 "Hg3 mi
7:35 AM36 °FFog.9 mph97%29.80 "Hg4 mi
7:15 AM36 °FFog.7 mph97%29.80 "Hg4 mi
6:55 AM36 °FFog.6 mph97%29.80 "Hg5 mi
6:35 AM36 °FFog.8 mph97%29.80 "Hg5 mi
5:55 AM36 °FFog.8 mph97%29.80 "Hg5 mi
5:35 AM36 °FFog.7 mph98%29.81 "Hg5 mi
5:15 AM35 °FFog.8 mph99%29.81 "Hg5 mi
4:55 AM35 °FFog.8 mph99%29.81 "Hg5 mi
4:15 AM35 °FFog.6 mph98%29.82 "Hg5 mi
3:55 AM35 °FFog.9 mph97%29.82 "Hg5 mi
3:15 AM35 °FOvercast.10 mph94%29.84 "Hg7 mi
Weather by CustomWeather, © 2014

See weather overviewHow to use our weather pages